| time (UTC) | temp F | wind direction | speed knots | gust knots | rain 1hr in | rain 24hr in | rain mn in | humidity % | barometer mb |
| 20260903063052 | 66 | 181 | 0.0 | 0.0 | 0.00 | 1.65 | 0.02 | 1 | 1012.6 |
| 20260903061544 | 66 | 279 | 0.0 | 0.0 | 0.00 | 1.65 | 0.02 | 1 | 1013.1 |
| 20260903060043 | 67 | 317 | 0.0 | 0.0 | 0.01 | 1.65 | 0.02 | 1 | 1013.2 |
| 20260903054537 | 67 | 256 | 0.0 | 0.0 | 0.02 | 1.65 | 0.02 | 1 | 1013.1 |
| 20260903053036 | 67 | 256 | 0.0 | 0.0 | 0.04 | 1.65 | 0.02 | 1 | 1012.9 |
| 20260903051528 | 67 | 256 | 0.0 | 0.0 | 0.09 | 1.65 | 0.02 | 1 | 1013.1 |
| 20260903050038 | 67 | 192 | 0.0 | 0.0 | 0.19 | 1.64 | 0.01 | 1 | 1013.0 |
| 20260903044520 | 68 | 197 | 0.0 | 0.0 | 0.19 | 1.63 | 0.00 | 1 | 1012.9 |
| 20260903043016 | 68 | 178 | 0.0 | 0.0 | 0.19 | 1.61 | 1.61 | 1 | 1014.1 |
| 20260903041519 | 68 | 188 | 0.0 | 0.0 | 0.17 | 1.56 | 1.56 | 1 | 1015.2 |
| 20260903040018 | 68 | 12 | 0.0 | 0.0 | 0.12 | 1.49 | 1.49 | 1 | 1016.1 |
| 20260903034512 | 68 | 197 | 0.0 | 0.0 | 0.13 | 1.44 | 1.44 | 1 | 1013.2 |
| 20260903033007 | 68 | 197 | 0.0 | 0.0 | 0.18 | 1.43 | 1.43 | 1 | 1013.4 |
| 20260903031503 | 68 | 197 | 0.0 | 0.0 | 0.35 | 1.39 | 1.39 | 1 | 1013.7 |
| 20260903030119 | 68 | 197 | 0.0 | 0.0 | 0.63 | 1.37 | 1.37 | 1 | 1014.4 |
| 20260903024552 | 68 | 197 | 0.0 | 0.0 | 0.59 | 1.33 | 1.33 | 1 | 1015.5 |
| 20260903023048 | 68 | 196 | 0.0 | 0.9 | 0.54 | 1.26 | 1.26 | 1 | 1015.1 |
| 20260903021546 | 69 | 9 | 0.0 | 12.2 | 0.42 | 1.12 | 1.12 | 1 | 1015.3 |
| 20260903020100 | 70 | 27 | 4.3 | 15.6 | 0.04 | 0.75 | 0.75 | 1 | 1016.5 |
| 20260903014540 | 71 | 171 | 0.0 | 0.0 | 0.03 | 0.74 | 0.74 | 1 | 1014.2 |
| 20260903013033 | 71 | 219 | 0.0 | 0.0 | 0.02 | 0.73 | 0.73 | 1 | 1014.5 |
| 20260903011529 | 71 | 219 | 0.0 | 0.0 | 0.00 | 0.71 | 0.71 | 1 | 1014.6 |
| 20260903010026 | 71 | 169 | 0.0 | 2.6 | 0.00 | 0.71 | 0.71 | 1 | 1013.9 |
| 20260903004523 | 71 | 141 | 0.0 | 0.0 | 0.00 | 0.71 | 0.71 | 1 | 1013.9 |
| 20260903003017 | 71 | 154 | 0.0 | 0.0 | 0.00 | 0.71 | 0.71 | 1 | 1013.9 |
| 20260903001512 | 71 | 234 | 0.0 | 0.0 | 0.00 | 0.71 | 0.71 | 1 | 1013.8 |
| 20260903000010 | 71 | 197 | 0.0 | 0.0 | 0.00 | 0.71 | 0.71 | 1 | 1013.8 |
| 20260902234505 | 71 | 232 | 0.0 | 0.0 | 0.00 | 0.71 | 0.71 | 1 | 1014.0 |
| 20260902233002 | 71 | 189 | 0.0 | 0.0 | 0.00 | 0.71 | 0.71 | 1 | 1014.1 |
| 20260902231558 | 71 | 158 | 0.0 | 0.0 | 0.00 | 0.71 | 0.71 | 1 | 1013.9 |
| 20260902230010 | 71 | 163 | 0.0 | 0.0 | 0.00 | 0.71 | 0.71 | 1 | 1013.7 |
| 20260902224508 | 71 | 209 | 0.0 | 0.0 | 0.00 | 0.71 | 0.71 | 1 | 1013.5 |
| 20260902223002 | 71 | 183 | 0.0 | 0.0 | 0.00 | 0.71 | 0.71 | 1 | 1013.6 |
| 20260902221612 | 71 | 184 | 0.0 | 0.0 | 0.00 | 0.71 | 0.71 | 1 | 1013.9 |
| 20260902220056 | 71 | 177 | 0.0 | 0.0 | 0.00 | 0.71 | 0.71 | 1 | 1014.1 |
| 20260902214544 | 71 | 162 | 0.0 | 0.0 | 0.00 | 0.71 | 0.71 | 1 | 1014.5 |
| 20260902213039 | 71 | 162 | 0.0 | 0.0 | 0.00 | 0.71 | 0.71 | 1 | 1014.5 |
| 20260902211535 | 71 | 177 | 0.0 | 0.0 | 0.00 | 0.71 | 0.71 | 1 | 1014.4 |
| 20260902210030 | 71 | 174 | 0.0 | 0.0 | 0.00 | 0.71 | 0.71 | 1 | 1014.5 |
| 20260902204523 | 71 | 142 | 0.0 | 0.0 | 0.00 | 0.71 | 0.71 | 1 | 1014.4 |
| 20260902203020 | 71 | 65 | 0.0 | 0.0 | 0.00 | 0.71 | 0.71 | 1 | 1014.2 |
| 20260902201517 | 71 | 105 | 0.0 | 0.0 | 0.00 | 0.71 | 0.71 | 1 | 1014.4 |
| 20260902200021 | 70 | 207 | 0.0 | 0.0 | 0.00 | 0.71 | 0.71 | 1 | 1014.8 |
| 20260902194531 | 70 | 183 | 0.0 | 0.0 | 0.00 | 0.71 | 0.71 | 1 | 1015.1 |
| 20260902193021 | 70 | 165 | 0.0 | 0.0 | 0.00 | 0.71 | 0.71 | 1 | 1015.2 |
| 20260902191521 | 70 | 196 | 0.0 | 0.0 | 0.00 | 0.71 | 0.71 | 1 | 1015.3 |
| 20260902190012 | 70 | 201 | 0.0 | 0.0 | 0.00 | 0.71 | 0.71 | 1 | 1015.3 |
| 20260902184509 | 69 | 150 | 0.0 | 0.0 | 0.00 | 0.71 | 0.71 | 1 | 1015.2 |
| 20260902183011 | 69 | 184 | 0.0 | 0.0 | 0.01 | 0.71 | 0.71 | 1 | 1015.2 |
| 20260902181508 | 69 | 69 | 0.0 | 0.0 | 0.01 | 0.71 | 0.71 | 1 | 1015.5 |
| 20260902180025 | 68 | 65 | 0.0 | 0.0 | 0.01 | 0.71 | 0.71 | 1 | 1015.8 |
| 20260902174521 | 68 | 64 | 0.0 | 0.9 | 0.01 | 0.71 | 0.71 | 1 | 1016.1 |
| 20260902173019 | 68 | 111 | 0.0 | 0.0 | 0.00 | 0.70 | 0.70 | 1 | 1016.3 |
| 20260902171514 | 68 | 103 | 0.0 | 0.0 | 0.00 | 0.70 | 0.70 | 1 | 1016.4 |
| 20260902170058 | 69 | 27 | 0.0 | 0.0 | 0.00 | 0.70 | 0.70 | 1 | 1016.5 |
| 20260902164603 | 69 | 38 | 0.0 | 0.0 | 0.01 | 0.70 | 0.70 | 1 | 1016.5 |
| 20260902163049 | 69 | 23 | 0.0 | 0.0 | 0.03 | 0.70 | 0.70 | 1 | 1016.5 |
| 20260902161546 | 69 | 215 | 0.0 | 0.0 | 0.04 | 0.70 | 0.70 | 1 | 1016.3 |
| 20260902160046 | 69 | 199 | 0.0 | 0.0 | 0.05 | 0.70 | 0.70 | 1 | 1016.0 |
| 20260902154547 | 69 | 53 | 0.0 | 0.0 | 0.06 | 0.69 | 0.69 | 1 | 1016.2 |
| 20260902153032 | 69 | 165 | 0.0 | 0.0 | 0.30 | 0.68 | 0.67 | 1 | 1016.3 |
| 20260902151533 | 69 | 165 | 0.0 | 0.0 | 0.66 | 0.68 | 0.67 | 1 | 1015.9 |
| 20260902150025 | 70 | 195 | 0.0 | 0.0 | 0.64 | 0.66 | 0.65 | 1 | 1016.2 |
| 20260902144520 | 70 | 22 | 0.0 | 0.0 | 0.64 | 0.66 | 0.65 | 1 | 1015.7 |
| 20260902143017 | 70 | 219 | 0.0 | 1.7 | 0.39 | 0.59 | 0.40 | 1 | 1016.0 |
| 20260902141511 | 71 | 148 | 0.0 | 0.0 | 0.00 | 0.20 | 0.01 | 1 | 1015.9 |
| 20260902140024 | 71 | 148 | 0.0 | 0.0 | 0.00 | 0.20 | 0.01 | 1 | 1016.0 |
| 20260902134522 | 71 | 148 | 0.0 | 0.0 | 0.00 | 0.20 | 0.01 | 1 | 1016.3 |
| 20260902133016 | 71 | 148 | 0.0 | 0.0 | 0.00 | 0.38 | 0.01 | 1 | 1015.9 |
| 20260902131511 | 72 | 128 | 0.0 | 0.0 | 0.00 | 0.38 | 0.01 | 1 | 1015.9 |
| 20260902130021 | 71 | 189 | 0.0 | 0.0 | 0.00 | 0.38 | 0.01 | 1 | 1015.8 |
| 20260902124502 | 72 | 182 | 0.0 | 0.0 | 0.00 | 0.38 | 0.01 | 1 | 1015.7 |
| 20260902123059 | 72 | 269 | 0.0 | 0.0 | 0.00 | 0.81 | 0.01 | 1 | 1015.5 |
| 20260902121554 | 72 | 273 | 0.0 | 0.0 | 0.00 | 0.81 | 0.01 | 1 | 1015.3 |
| 20260902120100 | 71 | 274 | 0.0 | 0.0 | 0.00 | 0.81 | 0.01 | 1 | 1015.1 |
| 20260902114612 | 71 | 284 | 0.0 | 0.0 | 0.00 | 0.81 | 0.01 | 1 | 1015.0 |
| 20260902113050 | 71 | 284 | 0.0 | 0.0 | 0.00 | 0.84 | 0.01 | 1 | 1014.7 |
| 20260902111547 | 71 | 285 | 0.0 | 0.0 | 0.00 | 0.84 | 0.01 | 1 | 1014.7 |
| 20260902110033 | 70 | 288 | 0.0 | 0.0 | 0.00 | 0.84 | 0.01 | 1 | 1014.6 |
| 20260902104528 | 70 | 288 | 0.0 | 0.0 | 0.00 | 0.84 | 0.01 | 1 | 1014.7 |
| 20260902103013 | 70 | 289 | 0.0 | 0.0 | 0.00 | 0.85 | 0.01 | 1 | 1014.7 |
| 20260902101509 | 70 | 290 | 0.0 | 0.0 | 0.00 | 0.85 | 0.01 | 1 | 1014.8 |
| 20260902100012 | 70 | 297 | 0.0 | 0.0 | 0.00 | 0.85 | 0.01 | 1 | 1014.6 |
| 20260902094506 | 70 | 297 | 0.0 | 0.0 | 0.00 | 0.85 | 0.01 | 1 | 1014.7 |
| 20260902093002 | 70 | 297 | 0.0 | 0.0 | 0.00 | 0.86 | 0.01 | 1 | 1014.7 |
| 20260902091602 | 70 | 298 | 0.0 | 0.0 | 0.00 | 0.86 | 0.01 | 1 | 1014.5 |
| 20260902090056 | 70 | 298 | 0.0 | 0.0 | 0.00 | 0.86 | 0.01 | 1 | 1014.5 |
| 20260902084551 | 70 | 298 | 0.0 | 0.0 | 0.00 | 0.86 | 0.01 | 1 | 1014.5 |
| 20260902083046 | 70 | 298 | 0.0 | 0.0 | 0.00 | 0.88 | 0.01 | 1 | 1014.4 |
| 20260902081547 | 70 | 298 | 0.0 | 0.0 | 0.01 | 0.88 | 0.01 | 1 | 1014.0 |
| 20260902080046 | 70 | 298 | 0.0 | 0.0 | 0.01 | 0.88 | 0.01 | 1 | 1014.1 |
| 20260902074529 | 70 | 298 | 0.0 | 0.0 | 0.01 | 0.88 | 0.01 | 1 | 1014.0 |
| 20260902073030 | 70 | 299 | 0.0 | 0.0 | 0.01 | 0.88 | 0.01 | 1 | 1013.9 |
| 20260902071521 | 71 | 298 | 0.0 | 0.0 | 0.00 | 0.87 | 0.00 | 1 | 1013.8 |
| 20260902070018 | 71 | 329 | 0.0 | 0.0 | 0.00 | 0.87 | 0.00 | 1 | 1013.9 |
| 20260902064515 | 71 | 333 | 0.0 | 0.0 | 0.00 | 0.87 | 0.00 | 1 | 1013.9 |